Weather Roundup
Issued by NWS

Home | Current Version | Previous Version | Graphics & Text | Print | Product List | Glossary Off
Versions: 1 2 3 4 5 6 7 8 9 10 11 12 13 14 15 16 17 18 19 20 21 22 23 24 25 26 27 28 29 30 31 32 33 34 35 36 37 38 39 40 41 42 43 44 45 46 47 48 49 50

000
NZUS93 KARX 221859
HRRWXR

CURRENT HOURLY OBSERVATIONS ACROSS
MUCH OF THE UPPER MISSISSIPPI VALLEY
NATIONAL WEATHER SERVICE LA CROSSE WI
200 PM CDT SAT JUL 22 2017


...SOUTHEAST MINNESOTA...


CITY           SKY/WX    TMP DP  RH WIND       PRES   REMARKS
ROCHESTER      MOSUNNY   77  72  84 S3        29.86S
ROCHESTER/MAYO FAIR      81  70  69 CALM      29.85S
WINONA         SUNNY     79  70  73 CALM      29.82S
AUSTIN         MOSUNNY   81  70  69 N6        29.85S
ALBERT LEA     MOSUNNY   81  70  69 W5        29.86S
DODGE CENTER   MOSUNNY   81  70  69 W3        29.85F
PRESTON        CLOUDY    75  68  80 CALM      29.87S
OWATONNA       SUNNY     82  72  69 W3        29.85S
FARIBAULT      MOSUNNY   84  72  65 W3        29.85S
$$

...ELSEWHERE IN MINNESOTA...


CITY           SKY/WX    TMP DP  RH WIND       PRES   REMARKS
MINNEAPOLIS    MOSUNNY   87  67  51 NW12      29.81S HX  90
INTNL FALLS    SUNNY     79  61  53 NW12G20   29.78F
DULUTH         MOSUNNY   68  61  78 SE8       29.84S
RED WING       MOSUNNY   88  64  45 W8G16     29.81S
REDWOOD FALLS  MOSUNNY   86  71  60 NW14      29.85S HX  91
MANKATO        PTSUNNY   83  72  69 W9        29.85S
WORTHINGTON    MOSUNNY   84  71  65 W14G21    29.91R
FAIRMONT       PTSUNNY   83  72  69 W9        29.87S
$$

...SOUTHWEST WISCONSIN...


CITY           SKY/WX    TMP DP  RH WIND       PRES   REMARKS
LA CROSSE      PTSUNNY   81  71  71 VRB3      29.82F
PRAIRIE DU CHI CLOUDY    78  71  77 N5        29.83S
BOSCOBEL       CLOUDY    81  72  74 CALM      29.83F
LONE ROCK      PTSUNNY   80  70  71 CALM      29.83F
PLATTEVILLE    CLOUDY    80  76  85 W6        29.86R
FORT MC COY    PTSUNNY   77  69  75 CALM      29.84S
MAUSTON-NEW LI PTCLDY    76  70  80 CALM      29.83F
VIROQUA        CLOUDY    75  72  89 CALM      29.86F
WIS DELLS      CLOUDY    77  68  72 NW5       29.84F
$$

...ELSEWHERE IN WISCONSIN...


CITY           SKY/WX    TMP DP  RH WIND       PRES   REMARKS
MILWAUKEE      CLOUDY    74  70  87 NE6       29.83R
MADISON        PTSUNNY   79  71  76 N6        29.83F
GREEN BAY      PTSUNNY   81  71  71 W7        29.81S
EAU CLAIRE     NOT AVBL
BLACK RVR FLS  FAIR      84  68  58 W3        29.82F
MEDFORD        MOSUNNY   80  67  65 W6        29.83F
WAUSAU         MOSUNNY   82  66  58 VRB7      29.80F
WIS RAPIDS     MOSUNNY   81  70  69 CALM      29.84F
MARSHFIELD     SUNNY     81  66  60 W5        29.83F
RICE LAKE      SUNNY     82  67  58 W7        29.84S
$$

...NORTHEAST IOWA...


CITY           SKY/WX    TMP DP  RH WIND       PRES   REMARKS
WATERLOO       CLOUDY    79  72  79 NW5       29.83F
DUBUQUE        CLOUDY    79  72  79 W5        29.85S
DECORAH        PTSUNNY   79  72  78 CALM      29.84S
MASON CITY     PTSUNNY   81  71  71 VRB7      29.87S
CHARLES CITY   CLOUDY    75  75 100 CALM      29.86F
OELWEIN          N/A    N/A N/A N/A MISG        N/A
$$

...ELSEWHERE IN IOWA...


CITY           SKY/WX    TMP DP  RH WIND       PRES   REMARKS
DES MOINES     PTSUNNY   88  75  65 N12       29.83S HX  97
IOWA CITY      CLOUDY    84  75  74 CALM      29.83S HX  92
FORT DODGE     PTSUNNY   81  72  74 NE8       29.88S
MARSHALLTOWN   CLOUDY    80  74  81 N7        29.84F
CEDAR RAPIDS   CLOUDY    80  75  84 NW3       29.83S
$$

...NORTHERN ILLINOIS...


CITY           SKY/WX    TMP DP  RH WIND       PRES   REMARKS
CHICAGO-OHARE  PTSUNNY   84  68  58 NW10      29.82F
CHICAGO-MIDWAY PTSUNNY   85  69  58 NW7       29.82S
MOLINE         MOSUNNY   85  73  67 SW7       29.81F HX  91
ROCKFORD       CLOUDY    85  72  65 VRB7      29.84F HX  91
PEORIA         PTSUNNY   84  73  69 SW7       29.82F HX  90
$$

NOTE: "FAIR" INDICATES FEW OR NO CLOUDS BELOW 12,000 FEET WITH NO
SIGNIFICANT WEATHER AND/OR OBSTRUCTIONS TO VISIBILITY. WIND
SPEEDS ARE IN MILES-PER-HOUR.




USA.gov is the U.S. government's official web portal to all federal, state and local government web resources and services.